Private Wetterstation Wechselburg
Wetterdaten: Sonntag, 31.03.2013
Datum Zeit Temp. +2m Bodentemp. Temp.+5cm Temp. Wind Windchill X Diff Temp. Feuchte +2m Feuchte +5cm Sonnenschein Luftdruck Regen Wind Richtung Richtung Sonnenschein UV Taupunkt Windchill Windben
31.03.2013 00:00 -3,7 C 7,4 C -3,3 C -4,0 C -4,5 C 0,0 C 87 % 89 % 0 % 1011,2 hPa 0,0 l/m 0,0 km/h (0 Bft) NW 315 0 min 0,0 UV-I -5,5 C -4,5 C 0,0 km/h (0 Bft)
31.03.2013 00:05 -3,7 C 7,4 C -3,3 C -4,0 C -4,5 C 0,0 C 87 % 89 % 0 % 1011,2 hPa 0,0 l/m 0,0 km/h (0 Bft) N 360 0 min 0,0 UV-I -5,5 C -4,5 C 0,0 km/h (0 Bft)
31.03.2013 00:10 -3,7 C 7,4 C -3,1 C -3,9 C -4,3 C 0,0 C 87 % 89 % 0 % 1011,2 hPa 0,0 l/m 0,0 km/h (0 Bft) NO 45 0 min 0,0 UV-I -5,5 C -4,3 C 0,0 km/h (0 Bft)
31.03.2013 00:15 -3,7 C 7,4 C -3,1 C -3,8 C -4,1 C 0,0 C 87 % 89 % 0 % 1011,2 hPa 0,0 l/m 0,0 km/h (0 Bft) N-NO 22 0 min 0,0 UV-I -5,5 C -4,1 C 0,0 km/h (0 Bft)
31.03.2013 00:20 -3,7 C 7,4 C -3,1 C -3,8 C -4,0 C 0,0 C 87 % 89 % 0 % 1011,2 hPa 0,0 l/m 0,0 km/h (0 Bft) N 360 0 min 0,0 UV-I -5,5 C -4,0 C 0,0 km/h (0 Bft)
31.03.2013 00:25 -3,7 C 7,4 C -3,0 C -3,8 C -3,9 C 0,0 C 87 % 89 % 0 % 1011,2 hPa 0,0 l/m 0,0 km/h (0 Bft) NW 315 0 min 0,0 UV-I -5,5 C -3,9 C 0,0 km/h (0 Bft)
31.03.2013 00:30 -3,7 C 7,4 C -2,9 C -3,8 C -3,9 C 0,0 C 87 % 89 % 0 % 1011,2 hPa 0,0 l/m 0,0 km/h (0 Bft) NW 315 0 min 0,0 UV-I -5,5 C -3,9 C 0,0 km/h (0 Bft)
31.03.2013 00:35 -3,8 C 7,4 C -2,8 C -3,8 C -3,8 C 0,0 C 87 % 89 % 0 % 1011,3 hPa 0,0 l/m 0,0 km/h (0 Bft) NW 315 0 min 0,0 UV-I -5,6 C -3,8 C 0,0 km/h (0 Bft)
31.03.2013 00:41 -3,8 C 7,4 C -2,7 C -3,8 C -3,9 C 0,0 C 87 % 89 % 0 % 1011,3 hPa 0,0 l/m 0,0 km/h (0 Bft) N 0 0 min 0,0 UV-I -5,6 C -3,9 C 0,0 km/h (0 Bft)
31.03.2013 01:00 -3,9 C 7,4 C -3,1 C -4,1 C -4,4 C 0,0 C 87 % 89 % 0 % 1011,1 hPa 0,0 l/m 0,0 km/h (0 Bft) NW 315 0 min 0,0 UV-I -5,7 C -4,4 C 0,0 km/h (0 Bft)
31.03.2013 01:05 -3,9 C 7,4 C -3,3 C -4,1 C -4,6 C 0,0 C 87 % 89 % 0 % 1011,1 hPa 0,0 l/m 0,0 km/h (0 Bft) NW 315 0 min 0,0 UV-I -5,7 C -4,6 C 0,0 km/h (0 Bft)
31.03.2013 01:10 -3,9 C 7,4 C -3,3 C -4,2 C -4,7 C 0,0 C 87 % 89 % 0 % 1011,1 hPa 0,0 l/m 0,0 km/h (0 Bft) NO 45 0 min 0,0 UV-I -5,7 C -4,7 C 0,0 km/h (0 Bft)
31.03.2013 01:15 -4,0 C 7,3 C -3,5 C -4,3 C -4,9 C 0,0 C 88 % 88 % 0 % 1010,9 hPa 0,0 l/m 0,0 km/h (0 Bft) NO 45 0 min 0,0 UV-I -5,7 C -4,9 C 0,0 km/h (0 Bft)
31.03.2013 01:20 -4,0 C 7,3 C -3,5 C -4,3 C -5,0 C 0,0 C 87 % 89 % 0 % 1010,9 hPa 0,0 l/m 0,0 km/h (0 Bft) NO 45 0 min 0,0 UV-I -5,8 C -5,0 C 0,0 km/h (0 Bft)
31.03.2013 01:25 -4,1 C 7,3 C -3,5 C -4,4 C -5,1 C 0,0 C 87 % 89 % 0 % 1010,9 hPa 0,0 l/m 0,0 km/h (0 Bft) NO 45 0 min 0,0 UV-I -5,9 C -5,1 C 0,0 km/h (0 Bft)
31.03.2013 01:30 -4,2 C 7,3 C -3,7 C -4,5 C -5,1 C 0,0 C 87 % 89 % 0 % 1010,9 hPa 0,0 l/m 0,0 km/h (0 Bft) NO 45 0 min 0,0 UV-I -6,0 C -5,1 C 0,0 km/h (0 Bft)
31.03.2013 01:35 -4,1 C 7,3 C -3,7 C -4,4 C -5,0 C 0,0 C 87 % 89 % 0 % 1011,4 hPa 0,0 l/m 0,0 km/h (0 Bft) N-NO 22 0 min 0,0 UV-I -5,9 C -5,0 C 0,0 km/h (0 Bft)
31.03.2013 01:40 -4,1 C 7,3 C -3,7 C -4,4 C -5,1 C 0,0 C 88 % 89 % 0 % 1011,4 hPa 0,0 l/m 0,0 km/h (0 Bft) NW 315 0 min 0,0 UV-I -5,8 C -5,1 C 0,0 km/h (0 Bft)
31.03.2013 01:45 -4,3 C 7,3 C -3,7 C -4,6 C -5,2 C 0,0 C 88 % 89 % 0 % 1011,4 hPa 0,0 l/m 0,0 km/h (0 Bft) NW 315 0 min 0,0 UV-I -6,0 C -5,2 C 0,0 km/h (0 Bft)
31.03.2013 01:50 -4,4 C 7,3 C -3,7 C -4,7 C -5,3 C 0,0 C 87 % 89 % 0 % 1011,4 hPa 0,0 l/m 0,0 km/h (0 Bft) NW 315 0 min 0,0 UV-I -6,2 C -5,3 C 0,0 km/h (0 Bft)
31.03.2013 01:55 -4,4 C 7,3 C -3,8 C -4,7 C -5,2 C 0,0 C 87 % 89 % 0 % 1011,1 hPa 0,0 l/m 0,0 km/h (0 Bft) NO 45 0 min 0,0 UV-I -6,2 C -5,2 C 0,0 km/h (0 Bft)
31.03.2013 03:00 -4,4 C 7,3 C -3,7 C -4,7 C -5,2 C 0,0 C 87 % 89 % 0 % 1011,1 hPa 0,0 l/m 0,0 km/h (0 Bft) NO 45 0 min 0,0 UV-I -6,2 C -5,2 C 0,0 km/h (0 Bft)
31.03.2013 03:05 -4,4 C 7,3 C -3,9 C -4,7 C -5,2 C 0,0 C 87 % 89 % 0 % 1011,1 hPa 0,0 l/m 0,0 km/h (0 Bft) NO 45 0 min 0,0 UV-I -6,2 C -5,2 C 0,0 km/h (0 Bft)
31.03.2013 03:10 -4,3 C 7,3 C -3,9 C -4,6 C -5,1 C 0,0 C 88 % 89 % 0 % 1011,1 hPa 0,0 l/m 0,0 km/h (0 Bft) NO 45 0 min 0,0 UV-I -6,0 C -5,1 C 0,0 km/h (0 Bft)
31.03.2013 03:15 -4,5 C 7,3 C -3,9 C -4,7 C -5,1 C 0,0 C 87 % 89 % 0 % 1011,4 hPa 0,0 l/m 0,0 km/h (0 Bft) NO 45 0 min 0,0 UV-I -6,3 C -5,1 C 0,0 km/h (0 Bft)
31.03.2013 03:20 -4,5 C 7,3 C -4,0 C -4,7 C -5,1 C 0,0 C 87 % 90 % 0 % 1011,4 hPa 0,0 l/m 0,0 km/h (0 Bft) NO 45 0 min 0,0 UV-I -6,3 C -5,1 C 0,0 km/h (0 Bft)
31.03.2013 03:25 -4,5 C 7,3 C -4,0 C -4,8 C -5,3 C 0,0 C 87 % 90 % 0 % 1011,4 hPa 0,0 l/m 0,0 km/h (0 Bft) NO 45 0 min 0,0 UV-I -6,3 C -5,3 C 0,0 km/h (0 Bft)
31.03.2013 03:30 -4,6 C 7,3 C -3,9 C -4,9 C -5,4 C 0,0 C 87 % 90 % 0 % 1011,4 hPa 0,0 l/m 0,0 km/h (0 Bft) NW 315 0 min 0,0 UV-I -6,4 C -5,4 C 0,0 km/h (0 Bft)
31.03.2013 03:35 -4,5 C 7,3 C -3,9 C -4,8 C -5,3 C 0,0 C 87 % 90 % 0 % 1011,1 hPa 0,0 l/m 0,0 km/h (0 Bft) NW 315 0 min 0,0 UV-I -6,3 C -5,3 C 0,0 km/h (0 Bft)
31.03.2013 03:40 -4,5 C 7,3 C -4,0 C -4,8 C -5,3 C 0,0 C 88 % 90 % 0 % 1011,1 hPa 0,0 l/m 0,0 km/h (0 Bft) NW 315 0 min 0,0 UV-I -6,2 C -5,3 C 0,0 km/h (0 Bft)
31.03.2013 03:45 -4,7 C 7,3 C -4,1 C -4,9 C -5,4 C 0,0 C 88 % 90 % 0 % 1011,1 hPa 0,0 l/m 0,0 km/h (0 Bft) NW 315 0 min 0,0 UV-I -6,4 C -5,4 C 0,0 km/h (0 Bft)
31.03.2013 03:50 -4,7 C 7,3 C -4,1 C -4,9 C -5,3 C 0,0 C 88 % 90 % 0 % 1011,1 hPa 0,0 l/m 0,0 km/h (0 Bft) NO 45 0 min 0,0 UV-I -6,4 C -5,3 C 0,0 km/h (0 Bft)
31.03.2013 03:55 -4,8 C 7,3 C -4,1 C -5,0 C -5,4 C 0,0 C 88 % 90 % 0 % 1010,7 hPa 0,0 l/m 0,0 km/h (0 Bft) N 360 0 min 0,0 UV-I -6,5 C -5,4 C 0,0 km/h (0 Bft)
31.03.2013 04:00 -4,8 C 7,3 C -4,1 C -5,0 C -5,4 C 0,0 C 88 % 90 % 0 % 1010,7 hPa 0,0 l/m 0,0 km/h (0 Bft) NO 45 0 min 0,0 UV-I -6,5 C -5,4 C 0,0 km/h (0 Bft)
31.03.2013 04:05 -4,9 C 7,3 C -4,2 C -5,1 C -5,4 C 0,0 C 88 % 89 % 0 % 1010,7 hPa 0,0 l/m 0,0 km/h (0 Bft) NO 45 0 min 0,0 UV-I -6,6 C -5,4 C 0,0 km/h (0 Bft)
31.03.2013 04:10 -4,9 C 7,3 C -4,1 C -5,1 C -5,6 C 0,0 C 88 % 90 % 0 % 1010,7 hPa 0,0 l/m 0,0 km/h (0 Bft) NO 45 0 min 0,0 UV-I -6,6 C -5,6 C 0,0 km/h (0 Bft)
31.03.2013 04:15 -4,9 C 7,3 C -4,1 C -5,1 C -5,5 C 0,0 C 88 % 90 % 0 % 1010,7 hPa 0,0 l/m 0,0 km/h (0 Bft) NO 45 0 min 0,0 UV-I -6,6 C -5,5 C 0,0 km/h (0 Bft)
31.03.2013 04:20 -4,9 C 7,3 C -4,1 C -5,1 C -5,5 C 0,0 C 88 % 90 % 0 % 1010,7 hPa 0,0 l/m 0,0 km/h (0 Bft) NO 45 0 min 0,0 UV-I -6,6 C -5,5 C 0,0 km/h (0 Bft)
31.03.2013 04:25 -4,9 C 7,3 C -4,1 C -5,1 C -5,6 C 0,0 C 88 % 90 % 0 % 1010,7 hPa 0,0 l/m 0,0 km/h (0 Bft) NW 315 0 min 0,0 UV-I -6,6 C -5,6 C 0,0 km/h (0 Bft)
31.03.2013 04:30 -4,9 C 7,3 C -4,1 C -5,1 C -5,6 C 0,0 C 88 % 90 % 0 % 1010,7 hPa 0,0 l/m 0,0 km/h (0 Bft) NW 315 0 min 0,0 UV-I -6,6 C -5,6 C 0,0 km/h (0 Bft)
31.03.2013 04:35 -5,1 C 7,3 C -4,1 C -5,3 C -5,6 C 0,0 C 88 % 90 % 0 % 1010,4 hPa 0,0 l/m 0,0 km/h (0 Bft) NW 315 0 min 0,0 UV-I -6,8 C -5,6 C 0,0 km/h (0 Bft)
31.03.2013 04:40 -4,9 C 7,3 C -4,1 C -5,1 C -5,5 C 0,0 C 88 % 90 % 0 % 1010,4 hPa 0,0 l/m 0,0 km/h (0 Bft) NW 315 0 min 0,0 UV-I -6,6 C -5,5 C 0,0 km/h (0 Bft)
31.03.2013 04:45 -5,1 C 7,3 C -4,1 C -5,2 C -5,5 C 0,0 C 88 % 90 % 0 % 1010,4 hPa 0,0 l/m 0,0 km/h (0 Bft) NO 45 0 min 0,0 UV-I -6,8 C -5,5 C 0,0 km/h (0 Bft)
31.03.2013 04:50 -5,1 C 7,3 C -4,3 C -5,2 C -5,4 C 0,0 C 88 % 89 % 0 % 1010,4 hPa 0,0 l/m 0,0 km/h (0 Bft) NO 45 0 min 0,0 UV-I -6,8 C -5,4 C 0,0 km/h (0 Bft)
31.03.2013 04:55 -5,1 C 7,3 C -4,3 C -5,3 C -5,6 C 0,0 C 88 % 89 % 0 % 1010,4 hPa 0,0 l/m 0,0 km/h (0 Bft) NO 45 0 min 0,0 UV-I -6,8 C -5,6 C 0,0 km/h (0 Bft)
31.03.2013 05:00 -5,2 C 7,3 C -4,3 C -5,4 C -5,7 C 0,0 C 88 % 89 % 0 % 1010,4 hPa 0,0 l/m 0,0 km/h (0 Bft) NO 45 0 min 0,0 UV-I -6,9 C -5,7 C 0,0 km/h (0 Bft)
31.03.2013 05:05 -5,2 C 7,3 C -4,1 C -5,3 C -5,6 C 0,0 C 88 % 90 % 0 % 1010,4 hPa 0,0 l/m 0,0 km/h (0 Bft) NO 45 0 min 0,0 UV-I -6,9 C -5,6 C 0,0 km/h (0 Bft)
31.03.2013 05:10 -5,2 C 7,3 C -4,1 C -5,2 C -5,3 C 0,0 C 88 % 90 % 0 % 1010,4 hPa 0,0 l/m 0,0 km/h (0 Bft) O-NO 67 0 min 0,0 UV-I -6,9 C -5,3 C 0,0 km/h (0 Bft)
31.03.2013 05:15 -5,1 C 7,3 C -3,9 C -5,0 C -5,0 C 0,1 C 88 % 90 % 0 % 1010,7 hPa 0,0 l/m 0,0 km/h (0 Bft) O-NO 67 0 min 0,0 UV-I -6,8 C -5,0 C 0,0 km/h (0 Bft)
31.03.2013 05:20 -5,1 C 7,3 C -3,9 C -4,9 C -4,9 C 0,2 C 89 % 90 % 0 % 1010,7 hPa 0,0 l/m 0,0 km/h (0 Bft) O-NO 67 0 min 0,0 UV-I -6,6 C -4,9 C 0,0 km/h (0 Bft)
31.03.2013 05:25 -5,1 C 7,3 C -3,7 C -4,7 C -4,7 C 0,4 C 89 % 90 % 0 % 1010,7 hPa 0,0 l/m 0,0 km/h (0 Bft) O-NO 67 0 min 0,0 UV-I -6,6 C -4,7 C 0,0 km/h (0 Bft)
31.03.2013 05:30 -5,1 C 7,3 C -3,7 C -4,6 C -4,6 C 0,5 C 89 % 90 % 0 % 1010,7 hPa 0,0 l/m 0,0 km/h (0 Bft) O-NO 67 0 min 0,0 UV-I -6,6 C -4,6 C 0,0 km/h (0 Bft)
31.03.2013 05:35 -4,9 C 7,3 C -3,5 C -4,5 C -4,5 C 0,4 C 89 % 90 % 0 % 1010,6 hPa 0,0 l/m 0,0 km/h (0 Bft) O 90 0 min 0,0 UV-I -6,4 C -4,5 C 0,0 km/h (0 Bft)
31.03.2013 05:40 -4,9 C 7,3 C -3,5 C -4,5 C -4,5 C 0,4 C 89 % 90 % 0 % 1010,6 hPa 0,0 l/m 0,0 km/h (0 Bft) O 90 0 min 0,0 UV-I -6,4 C -4,5 C 0,0 km/h (0 Bft)
31.03.2013 05:45 -4,9 C 7,3 C -3,5 C -4,6 C -4,6 C 0,3 C 89 % 90 % 0 % 1010,6 hPa 0,0 l/m 0,0 km/h (0 Bft) O 90 0 min 0,0 UV-I -6,4 C -4,6 C 0,0 km/h (0 Bft)
31.03.2013 05:50 -4,9 C 7,3 C -3,5 C -4,6 C -4,6 C 0,3 C 89 % 90 % 0 % 1010,6 hPa 0,0 l/m 0,0 km/h (0 Bft) O 90 0 min 0,0 UV-I -6,4 C -4,6 C 0,0 km/h (0 Bft)
31.03.2013 05:55 -4,9 C 7,3 C -3,5 C -4,7 C -4,7 C 0,2 C 89 % 90 % 0 % 1010,7 hPa 0,0 l/m 0,0 km/h (0 Bft) O 90 0 min 0,0 UV-I -6,4 C -4,7 C 0,0 km/h (0 Bft)
31.03.2013 06:00 -4,9 C 7,3 C -3,3 C -4,6 C -4,6 C 0,3 C 89 % 90 % 0 % 1010,7 hPa 0,0 l/m 0,0 km/h (0 Bft) O 90 0 min 0,0 UV-I -6,4 C -4,6 C 0,0 km/h (0 Bft)
31.03.2013 06:05 -4,9 C 7,3 C -3,3 C -4,4 C -4,4 C 0,5 C 89 % 90 % 0 % 1010,7 hPa 0,0 l/m 0,0 km/h (0 Bft) O 90 0 min 0,0 UV-I -6,4 C -4,4 C 0,0 km/h (0 Bft)
31.03.2013 06:10 -4,7 C 7,3 C -3,3 C -4,3 C -4,3 C 0,4 C 89 % 90 % 0 % 1010,7 hPa 0,0 l/m 0,0 km/h (0 Bft) O 90 0 min 0,0 UV-I -6,2 C -4,3 C 0,0 km/h (0 Bft)
31.03.2013 06:15 -4,8 C 7,3 C -3,3 C -4,2 C -4,2 C 0,6 C 89 % 90 % 0 % 1011,0 hPa 0,0 l/m 0,0 km/h (0 Bft) O 90 0 min 0,0 UV-I -6,3 C -4,2 C 0,0 km/h (0 Bft)
31.03.2013 06:20 -4,7 C 7,3 C -3,1 C -4,2 C -4,2 C 0,5 C 89 % 90 % 0 % 1011,0 hPa 0,0 l/m 0,0 km/h (0 Bft) O-NO 67 0 min 0,0 UV-I -6,2 C -4,2 C 0,0 km/h (0 Bft)
31.03.2013 06:25 -4,7 C 7,3 C -3,1 C -4,1 C -4,1 C 0,6 C 89 % 90 % 0 % 1011,0 hPa 0,0 l/m 0,2 km/h (0 Bft) W 270 0 min 0,0 UV-I -6,2 C -4,1 C 0,0 km/h (0 Bft)
31.03.2013 06:30 -4,5 C 7,3 C -2,9 C -4,0 C -4,0 C 0,5 C 89 % 90 % 0 % 1011,0 hPa 0,0 l/m 0,2 km/h (0 Bft) W-SW 247 0 min 0,0 UV-I -6,0 C -4,0 C 0,0 km/h (0 Bft)
31.03.2013 06:35 -4,5 C 7,3 C -2,9 C -4,0 C -4,0 C 0,5 C 89 % 90 % 0 % 1010,6 hPa 0,0 l/m 0,0 km/h (0 Bft) W-SW 247 0 min 0,0 UV-I -6,0 C -4,0 C 0,0 km/h (0 Bft)
31.03.2013 06:41 -4,5 C 7,3 C -2,9 C -4,0 C -4,0 C 0,5 C 89 % 90 % 0 % 1010,6 hPa 0,0 l/m 0,0 km/h (0 Bft) N 0 0 min 0,0 UV-I -6,0 C -4,0 C 0,0 km/h (0 Bft)
31.03.2013 07:00 -4,5 C 7,3 C -2,9 C -3,9 C -3,9 C 0,6 C 89 % 90 % 16 % 1010,2 hPa 0,0 l/m 0,0 km/h (0 Bft) W-SW 247 19 min 0,0 UV-I -6,0 C -3,9 C 0,0 km/h (0 Bft)
31.03.2013 07:05 -4,5 C 7,3 C -2,9 C -3,8 C -3,8 C 0,7 C 89 % 90 % 18 % 1010,2 hPa 0,0 l/m 0,0 km/h (0 Bft) W 270 5 min 0,0 UV-I -6,0 C -3,8 C 0,0 km/h (0 Bft)
31.03.2013 07:10 -4,5 C 7,4 C -2,9 C -3,8 C -3,8 C 0,7 C 89 % 90 % 18 % 1010,2 hPa 0,0 l/m 0,0 km/h (0 Bft) W 270 5 min 0,0 UV-I -6,0 C -3,8 C 0,0 km/h (0 Bft)
31.03.2013 07:15 -4,4 C 7,4 C -2,7 C -3,7 C -3,7 C 0,7 C 89 % 90 % 18 % 1010,4 hPa 0,0 l/m 0,0 km/h (0 Bft) W-SW 247 5 min 0,0 UV-I -5,9 C -3,7 C 0,0 km/h (0 Bft)
31.03.2013 07:20 -4,3 C 7,4 C -2,7 C -3,6 C -3,6 C 0,7 C 89 % 90 % 18 % 1010,4 hPa 0,0 l/m 0,0 km/h (0 Bft) W-SW 247 0 min 0,0 UV-I -5,8 C -3,6 C 0,0 km/h (0 Bft)
31.03.2013 07:25 -4,3 C 7,4 C -2,5 C -3,6 C -3,6 C 0,7 C 89 % 90 % 18 % 1010,4 hPa 0,0 l/m 0,0 km/h (0 Bft) W-NW 292 0 min 0,0 UV-I -5,8 C -3,6 C 0,0 km/h (0 Bft)
31.03.2013 07:30 -4,1 C 7,4 C -2,7 C -3,5 C -3,5 C 0,6 C 89 % 90 % 16 % 1010,4 hPa 0,0 l/m 0,0 km/h (0 Bft) W-NW 292 0 min 0,0 UV-I -5,6 C -3,5 C 0,0 km/h (0 Bft)
31.03.2013 07:35 -4,1 C 7,4 C -2,5 C -3,4 C -3,4 C 0,7 C 90 % 90 % 18 % 1011,1 hPa 0,0 l/m 0,0 km/h (0 Bft) W-NW 292 0 min 0,0 UV-I -5,5 C -3,4 C 0,0 km/h (0 Bft)
31.03.2013 07:40 -4,1 C 7,4 C -2,5 C -3,2 C -3,2 C 0,9 C 90 % 90 % 24 % 1011,1 hPa 0,0 l/m 0,0 km/h (0 Bft) W-NW 292 0 min 0,0 UV-I -5,5 C -3,2 C 0,0 km/h (0 Bft)
31.03.2013 07:45 -4,1 C 7,4 C -2,3 C -3,0 C -3,0 C 1,1 C 90 % 89 % 29 % 1011,1 hPa 0,0 l/m 0,0 km/h (0 Bft) W-NW 292 0 min 0,0 UV-I -5,5 C -3,0 C 0,0 km/h (0 Bft)
31.03.2013 07:50 -4,0 C 7,4 C -2,3 C -2,9 C -2,9 C 1,1 C 90 % 89 % 29 % 1011,1 hPa 0,0 l/m 0,0 km/h (0 Bft) W-SW 247 0 min 0,0 UV-I -5,4 C -2,9 C 0,0 km/h (0 Bft)
31.03.2013 07:55 -3,9 C 7,4 C -2,1 C -2,8 C -2,8 C 1,1 C 90 % 89 % 29 % 1011,0 hPa 0,0 l/m 0,0 km/h (0 Bft) W-SW 247 0 min 0,0 UV-I -5,3 C -2,8 C 0,0 km/h (0 Bft)
31.03.2013 08:00 -3,8 C 7,4 C -2,1 C -2,6 C -2,6 C 1,2 C 90 % 89 % 32 % 1011,0 hPa 0,0 l/m 0,0 km/h (0 Bft) SW 225 0 min 0,0 UV-I -5,2 C -2,6 C 0,0 km/h (0 Bft)
31.03.2013 08:05 -3,7 C 7,4 C -1,9 C -2,5 C -2,5 C 1,2 C 90 % 89 % 32 % 1011,0 hPa 0,0 l/m 0,0 km/h (0 Bft) W-SW 247 0 min 0,0 UV-I -5,1 C -2,5 C 0,0 km/h (0 Bft)
31.03.2013 08:10 -3,7 C 7,4 C -1,9 C -2,4 C -2,4 C 1,3 C 90 % 89 % 34 % 1011,0 hPa 0,0 l/m 0,0 km/h (0 Bft) W-SW 247 0 min 0,0 UV-I -5,1 C -2,4 C 0,0 km/h (0 Bft)
31.03.2013 08:15 -3,5 C 7,4 C -1,7 C -2,2 C -2,2 C 1,3 C 90 % 90 % 34 % 1010,9 hPa 0,0 l/m 0,0 km/h (0 Bft) W-SW 247 0 min 0,0 UV-I -4,9 C -2,2 C 0,0 km/h (0 Bft)
31.03.2013 08:20 -3,5 C 7,4 C -1,7 C -2,2 C -2,2 C 1,3 C 90 % 90 % 34 % 1010,9 hPa 0,0 l/m 0,2 km/h (0 Bft) W-SW 247 0 min 0,0 UV-I -4,9 C -2,2 C 0,0 km/h (0 Bft)
31.03.2013 08:25 -3,5 C 7,4 C -1,5 C -2,1 C -2,1 C 1,4 C 90 % 89 % 37 % 1010,9 hPa 0,0 l/m 0,2 km/h (0 Bft) SW 225 0 min 0,0 UV-I -4,9 C -2,1 C 0,0 km/h (0 Bft)
31.03.2013 08:30 -3,4 C 7,4 C -1,5 C -2,0 C -2,0 C 1,4 C 90 % 89 % 37 % 1010,9 hPa 0,0 l/m 0,0 km/h (0 Bft) W 270 0 min 0,0 UV-I -4,8 C -2,0 C 0,0 km/h (0 Bft)
31.03.2013 08:35 -3,2 C 7,4 C -1,3 C -1,7 C -1,7 C 1,5 C 90 % 89 % 39 % 1011,2 hPa 0,0 l/m 0,0 km/h (0 Bft) W-SW 247 0 min 0,0 UV-I -4,6 C -1,7 C 0,0 km/h (0 Bft)
31.03.2013 08:40 -2,9 C 7,4 C -1,3 C -1,5 C -1,5 C 1,4 C 90 % 89 % 37 % 1011,2 hPa 0,0 l/m 0,0 km/h (0 Bft) W 270 0 min 0,0 UV-I -4,3 C -1,5 C 0,0 km/h (0 Bft)
31.03.2013 08:45 -2,9 C 7,4 C -1,2 C -1,4 C -1,4 C 1,5 C 90 % 89 % 39 % 1011,2 hPa 0,0 l/m 0,0 km/h (0 Bft) S-SW 202 0 min 0,0 UV-I -4,3 C -1,4 C 0,0 km/h (0 Bft)
31.03.2013 08:50 -2,9 C 7,4 C -1,1 C -1,3 C -1,3 C 1,6 C 90 % 89 % 42 % 1011,2 hPa 0,0 l/m 0,0 km/h (0 Bft) S-SW 202 0 min 0,0 UV-I -4,3 C -1,3 C 0,0 km/h (0 Bft)
31.03.2013 08:55 -2,8 C 7,4 C -0,9 C -1,1 C -1,1 C 1,7 C 90 % 89 % 45 % 1010,6 hPa 0,0 l/m 0,0 km/h (0 Bft) S-SW 202 0 min 0,0 UV-I -4,2 C -1,1 C 0,0 km/h (0 Bft)
31.03.2013 09:00 -2,7 C 7,4 C -0,9 C -0,8 C -0,8 C 1,9 C 91 % 88 % 50 % 1010,6 hPa 0,0 l/m 0,2 km/h (0 Bft) N-NW 337 0 min 0,0 UV-I -4,0 C -0,8 C 1,6 km/h (1 Bft)
31.03.2013 09:05 -2,5 C 7,3 C -0,6 C -0,6 C -0,6 C 1,9 C 91 % 88 % 50 % 1010,6 hPa 0,0 l/m 0,2 km/h (0 Bft) W 270 0 min 0,0 UV-I -3,8 C -0,6 C 2,3 km/h (1 Bft)
31.03.2013 09:10 -2,4 C 7,3 C -0,3 C -0,5 C -0,5 C 1,9 C 91 % 88 % 50 % 1010,6 hPa 0,0 l/m 0,2 km/h (0 Bft) NO 45 0 min 0,0 UV-I -3,7 C -0,5 C 0,0 km/h (0 Bft)
31.03.2013 09:15 -2,1 C 7,3 C -0,1 C -0,1 C -0,1 C 2,0 C 90 % 88 % 53 % 1011,3 hPa 0,0 l/m 0,0 km/h (0 Bft) NW 315 0 min 0,0 UV-I -3,5 C -0,1 C 0,0 km/h (0 Bft)
31.03.2013 09:20 -2,1 C 7,3 C 0,1 C 0,2 C 0,2 C 2,3 C 90 % 88 % 61 % 1011,3 hPa 0,0 l/m 0,2 km/h (0 Bft) N-NW 337 0 min 0,0 UV-I -3,5 C 0,2 C 2,3 km/h (1 Bft)
31.03.2013 09:25 -2,0 C 7,3 C 0,0 C 0,3 C 0,3 C 2,3 C 90 % 87 % 61 % 1011,3 hPa 0,0 l/m 1,0 km/h (0 Bft) N-NW 337 0 min 0,1 UV-I -3,4 C 0,3 C 4,8 km/h (1 Bft)
31.03.2013 09:30 -1,9 C 7,3 C 0,1 C 0,4 C 0,4 C 2,3 C 90 % 87 % 61 % 1011,3 hPa 0,0 l/m 1,0 km/h (0 Bft) NW 315 0 min 0,1 UV-I -3,3 C 0,4 C 0,0 km/h (0 Bft)
31.03.2013 09:35 -1,7 C 7,2 C 0,3 C 0,7 C 0,7 C 2,4 C 90 % 87 % 63 % 1011,0 hPa 0,0 l/m 1,4 km/h (1 Bft) N 360 0 min 0,1 UV-I -3,1 C 0,7 C 4,5 km/h (1 Bft)
31.03.2013 09:40 -1,7 C 7,2 C 0,4 C 1,0 C 1,0 C 2,7 C 89 % 86 % 71 % 1011,0 hPa 0,0 l/m 2,1 km/h (1 Bft) N 360 0 min 0,2 UV-I -3,3 C 1,0 C 2,7 km/h (1 Bft)
31.03.2013 09:45 -1,7 C 7,2 C 0,7 C 1,8 C 1,8 C 3,5 C 88 % 86 % 92 % 1011,0 hPa 0,0 l/m 2,7 km/h (1 Bft) NW 315 5 min 0,2 UV-I -3,4 C 1,8 C 0,0 km/h (0 Bft)
31.03.2013 09:50 -1,5 C 7,1 C 0,9 C 2,7 C 2,7 C 4,2 C 88 % 86 % 100 % 1011,0 hPa 0,0 l/m 2,4 km/h (1 Bft) NW 315 5 min 0,3 UV-I -3,2 C 2,7 C 4,0 km/h (1 Bft)
31.03.2013 09:55 -1,3 C 7,2 C 0,6 C 2,3 C 2,3 C 3,6 C 87 % 85 % 95 % 1011,2 hPa 0,0 l/m 2,6 km/h (1 Bft) N-NW 337 5 min 0,3 UV-I -3,2 C 2,3 C 6,3 km/h (2 Bft)
31.03.2013 10:00 -1,3 C 7,1 C 0,9 C 2,3 C 2,3 C 3,6 C 87 % 84 % 95 % 1011,2 hPa 0,0 l/m 3,1 km/h (1 Bft) NW 315 5 min 0,3 UV-I -3,2 C 2,3 C 2,9 km/h (1 Bft)
31.03.2013 10:05 -1,1 C 7,0 C 1,3 C 3,9 C 3,9 C 5,0 C 87 % 84 % 100 % 1011,2 hPa 0,0 l/m 2,1 km/h (1 Bft) O-SO 112 5 min 0,3 UV-I -3,0 C 3,9 C 2,1 km/h (1 Bft)
31.03.2013 10:10 -0,7 C 7,1 C 1,7 C 5,0 C 5,0 C 5,7 C 87 % 84 % 100 % 1011,2 hPa 0,0 l/m 1,4 km/h (1 Bft) S-SW 202 5 min 0,4 UV-I -2,6 C 5,0 C 2,6 km/h (1 Bft)
31.03.2013 10:15 -0,4 C 7,0 C 2,3 C 5,5 C 5,5 C 5,9 C 85 % 83 % 100 % 1011,3 hPa 0,0 l/m 2,3 km/h (1 Bft) N-NW 337 5 min 0,5 UV-I -2,6 C 5,5 C 3,1 km/h (1 Bft)
31.03.2013 10:20 -0,1 C 7,0 C 2,3 C 5,5 C 5,5 C 5,6 C 84 % 81 % 100 % 1011,3 hPa 0,0 l/m 3,1 km/h (1 Bft) N-NO 22 5 min 0,6 UV-I -2,5 C 5,5 C 2,6 km/h (1 Bft)
31.03.2013 10:25 -0,1 C 7,0 C 2,7 C 5,6 C 5,6 C 5,7 C 83 % 81 % 100 % 1011,3 hPa 0,0 l/m 2,7 km/h (1 Bft) SO 135 5 min 0,7 UV-I -2,6 C 5,6 C 0,0 km/h (0 Bft)
31.03.2013 10:30 0,4 C 7,0 C 3,5 C 6,6 C 6,6 C 6,2 C 83 % 79 % 100 % 1011,3 hPa 0,0 l/m 2,4 km/h (1 Bft) N-NW 337 5 min 0,7 UV-I -2,1 C 6,6 C 9,0 km/h (2 Bft)
31.03.2013 10:35 0,3 C 7,0 C 3,9 C 6,5 C 6,5 C 6,2 C 82 % 77 % 100 % 1011,2 hPa 0,0 l/m 2,4 km/h (1 Bft) NO 45 5 min 0,8 UV-I -2,4 C 6,5 C 2,6 km/h (1 Bft)
31.03.2013 10:40 0,5 C 7,0 C 4,3 C 6,2 C 6,2 C 5,7 C 81 % 75 % 100 % 1011,2 hPa 0,0 l/m 3,2 km/h (1 Bft) N-NO 22 5 min 0,7 UV-I -2,4 C 6,2 C 7,7 km/h (2 Bft)
31.03.2013 10:45 0,5 C 7,0 C 4,3 C 6,3 C 6,3 C 5,8 C 81 % 74 % 100 % 1011,2 hPa 0,0 l/m 2,9 km/h (1 Bft) NO 45 5 min 0,8 UV-I -2,4 C 6,3 C 5,5 km/h (1 Bft)
31.03.2013 10:50 0,7 C 7,0 C 4,0 C 6,1 C 6,1 C 5,4 C 81 % 73 % 100 % 1011,2 hPa 0,0 l/m 3,1 km/h (1 Bft) N-NW 337 5 min 0,8 UV-I -2,2 C 6,1 C 5,3 km/h (1 Bft)
31.03.2013 10:55 0,7 C 7,0 C 3,6 C 5,7 C 5,7 C 5,0 C 81 % 74 % 100 % 1010,8 hPa 0,0 l/m 2,4 km/h (1 Bft) N-NW 337 5 min 0,7 UV-I -2,2 C 5,7 C 2,6 km/h (1 Bft)
31.03.2013 11:00 1,0 C 7,0 C 4,4 C 6,4 C 6,4 C 5,4 C 81 % 75 % 100 % 1010,8 hPa 0,0 l/m 1,8 km/h (1 Bft) NO 45 5 min 0,8 UV-I -1,9 C 6,4 C 4,7 km/h (1 Bft)
31.03.2013 11:05 1,2 C 7,0 C 4,4 C 6,8 C 6,8 C 5,6 C 79 % 72 % 100 % 1010,8 hPa 0,0 l/m 2,4 km/h (1 Bft) NO 45 5 min 1,0 UV-I -2,0 C 6,8 C 4,0 km/h (1 Bft)
31.03.2013 11:10 1,2 C 7,0 C 4,0 C 6,4 C 6,4 C 5,2 C 79 % 73 % 100 % 1010,8 hPa 0,0 l/m 3,1 km/h (1 Bft) N-NW 337 5 min 0,8 UV-I -2,0 C 6,4 C 4,2 km/h (1 Bft)
31.03.2013 11:15 1,2 C 7,0 C 4,0 C 6,6 C 6,6 C 5,4 C 78 % 71 % 100 % 1011,9 hPa 0,0 l/m 3,2 km/h (1 Bft) O 90 5 min 0,8 UV-I -2,2 C 6,6 C 5,5 km/h (1 Bft)
31.03.2013 11:20 1,3 C 6,9 C 3,8 C 6,2 C 6,2 C 4,9 C 78 % 72 % 100 % 1011,9 hPa 0,0 l/m 3,2 km/h (1 Bft) N-NW 337 5 min 0,9 UV-I -2,1 C 6,2 C 3,1 km/h (1 Bft)
31.03.2013 11:25 1,3 C 6,9 C 4,3 C 5,9 C 5,9 C 4,6 C 77 % 72 % 100 % 1011,9 hPa 0,0 l/m 3,5 km/h (1 Bft) O 90 5 min 1,0 UV-I -2,3 C 5,9 C 5,6 km/h (1 Bft)
31.03.2013 11:30 1,2 C 6,9 C 4,0 C 5,5 C 5,5 C 4,3 C 77 % 70 % 100 % 1011,9 hPa 0,0 l/m 3,7 km/h (1 Bft) O-SO 112 5 min 0,8 UV-I -2,4 C 5,5 C 5,0 km/h (1 Bft)
31.03.2013 11:35 1,3 C 6,9 C 3,6 C 5,4 C 5,4 C 4,1 C 76 % 71 % 100 % 1011,9 hPa 0,0 l/m 3,4 km/h (1 Bft) N 360 5 min 0,8 UV-I -2,5 C 5,4 C 2,4 km/h (1 Bft)
31.03.2013 11:40 1,5 C 6,9 C 3,9 C 5,8 C 5,8 C 4,3 C 77 % 71 % 100 % 1011,9 hPa 0,0 l/m 2,1 km/h (1 Bft) O-SO 112 5 min 0,9 UV-I -2,1 C 5,8 C 4,8 km/h (1 Bft)
31.03.2013 11:45 1,6 C 6,9 C 4,9 C 6,4 C 6,4 C 4,8 C 76 % 71 % 100 % 1011,9 hPa 0,0 l/m 1,9 km/h (1 Bft) N 360 5 min 1,1 UV-I -2,2 C 6,4 C 1,9 km/h (1 Bft)
31.03.2013 11:50 1,9 C 6,9 C 4,3 C 6,6 C 6,6 C 4,7 C 75 % 69 % 100 % 1011,9 hPa 0,0 l/m 2,4 km/h (1 Bft) N-NO 22 5 min 0,8 UV-I -2,1 C 6,6 C 3,4 km/h (1 Bft)
31.03.2013 11:55 1,9 C 6,9 C 3,8 C 6,3 C 6,3 C 4,4 C 74 % 70 % 100 % 1011,9 hPa 0,0 l/m 2,1 km/h (1 Bft) NW 315 5 min 0,5 UV-I -2,2 C 6,3 C 3,4 km/h (1 Bft)
31.03.2013 12:00 1,6 C 6,9 C 3,1 C 4,8 C 4,8 C 3,2 C 74 % 71 % 84 % 1011,9 hPa 0,0 l/m 2,6 km/h (1 Bft) N 360 0 min 0,1 UV-I -2,5 C 4,8 C 1,8 km/h (1 Bft)
31.03.2013 12:05 1,4 C 6,9 C 2,8 C 4,1 C 4,1 C 2,7 C 75 % 72 % 71 % 1011,9 hPa 0,0 l/m 2,4 km/h (1 Bft) W 270 0 min 0,1 UV-I -2,5 C 4,1 C 3,4 km/h (1 Bft)
31.03.2013 12:10 1,2 C 6,9 C 2,5 C 3,3 C 3,3 C 2,1 C 76 % 73 % 55 % 1011,9 hPa 0,0 l/m 2,4 km/h (1 Bft) NO 45 0 min 0,2 UV-I -2,5 C 3,3 C 4,5 km/h (1 Bft)
31.03.2013 12:15 1,1 C 6,9 C 2,4 C 2,6 C 2,6 C 1,5 C 77 % 75 % 39 % 1011,9 hPa 0,0 l/m 3,2 km/h (1 Bft) O-NO 67 0 min 0,4 UV-I -2,5 C 2,6 C 3,1 km/h (1 Bft)
31.03.2013 12:20 1,1 C 6,9 C 2,4 C 2,7 C 2,7 C 1,6 C 78 % 76 % 42 % 1011,9 hPa 0,0 l/m 2,9 km/h (1 Bft) N-NO 22 0 min 0,4 UV-I -2,3 C 2,7 C 2,4 km/h (1 Bft)
31.03.2013 12:25 1,1 C 6,9 C 2,3 C 2,8 C 2,8 C 1,7 C 77 % 75 % 45 % 1011,9 hPa 0,0 l/m 2,7 km/h (1 Bft) N-NO 22 0 min 0,3 UV-I -2,5 C 2,8 C 4,8 km/h (1 Bft)
31.03.2013 12:30 0,8 C 6,9 C 2,0 C 1,9 C 1,9 C 1,1 C 78 % 76 % 29 % 1011,9 hPa 0,0 l/m 3,5 km/h (1 Bft) O-NO 67 0 min 0,3 UV-I -2,6 C 1,9 C 2,1 km/h (1 Bft)
31.03.2013 12:35 0,8 C 6,9 C 2,0 C 1,9 C 1,9 C 1,1 C 77 % 76 % 29 % 1011,2 hPa 0,0 l/m 3,5 km/h (1 Bft) N-NO 22 0 min 0,3 UV-I -2,8 C 1,9 C 3,4 km/h (1 Bft)
31.03.2013 13:00 1,2 C 6,9 C 2,7 C 3,9 C 3,9 C 2,7 C 77 % 75 % 71 % 1010,8 hPa 0,0 l/m 3,2 km/h (1 Bft) N 360 0 min 1,0 UV-I -2,4 C 3,9 C 4,2 km/h (1 Bft)
31.03.2013 13:05 1,3 C 6,9 C 2,8 C 3,9 C 3,9 C 2,6 C 76 % 75 % 68 % 1010,8 hPa 0,0 l/m 3,9 km/h (1 Bft) N-NO 22 0 min 1,0 UV-I -2,5 C 3,9 C 3,4 km/h (1 Bft)
31.03.2013 13:10 1,4 C 6,9 C 2,7 C 4,0 C 4,0 C 2,6 C 76 % 74 % 68 % 1010,8 hPa 0,0 l/m 4,2 km/h (1 Bft) NW 315 0 min 0,9 UV-I -2,4 C 4,0 C 2,3 km/h (1 Bft)
31.03.2013 13:15 1,5 C 6,9 C 2,5 C 3,8 C 3,8 C 2,3 C 76 % 74 % 61 % 1012,0 hPa 0,0 l/m 3,7 km/h (1 Bft) O-SO 112 0 min 0,6 UV-I -2,3 C 3,8 C 3,5 km/h (1 Bft)
31.03.2013 13:20 1,3 C 6,9 C 2,1 C 3,4 C 3,4 C 2,1 C 76 % 74 % 55 % 1012,0 hPa 0,0 l/m 3,2 km/h (1 Bft) N-NW 337 0 min 0,3 UV-I -2,5 C 3,4 C 5,1 km/h (1 Bft)
31.03.2013 13:25 1,3 C 6,9 C 1,8 C 2,6 C 2,6 C 1,3 C 76 % 76 % 34 % 1012,0 hPa 0,0 l/m 3,4 km/h (1 Bft) N 360 0 min 0,0 UV-I -2,5 C 2,6 C 6,1 km/h (2 Bft)
31.03.2013 13:30 0,8 C 7,0 C 1,4 C 0,7 C 0,6 C 0,0 C 78 % 77 % 0 % 1012,0 hPa 0,0 l/m 5,0 km/h (1 Bft) N-NW 337 0 min 0,0 UV-I -2,6 C -0,9 C 4,3 km/h (1 Bft)
31.03.2013 13:35 0,7 C 7,1 C 1,5 C 0,5 C 0,2 C 0,0 C 79 % 78 % 0 % 1011,6 hPa 0,0 l/m 4,8 km/h (1 Bft) N-NW 337 0 min 0,0 UV-I -2,5 C -1,3 C 11,1 km/h (2 Bft)
31.03.2013 13:40 0,7 C 7,2 C 1,2 C 0,7 C 0,6 C 0,0 C 80 % 79 % 0 % 1011,6 hPa 0,0 l/m 3,2 km/h (1 Bft) N-NO 22 0 min 0,1 UV-I -2,3 C 0,6 C 3,2 km/h (1 Bft)
31.03.2013 13:45 0,6 C 7,2 C 1,3 C 0,7 C 0,7 C 0,1 C 80 % 80 % 3 % 1011,6 hPa 0,0 l/m 3,1 km/h (1 Bft) N-NW 337 0 min 0,1 UV-I -2,4 C 0,7 C 0,0 km/h (0 Bft)
31.03.2013 13:50 0,7 C 7,2 C 1,2 C 1,2 C 1,2 C 0,5 C 81 % 80 % 13 % 1011,6 hPa 0,0 l/m 1,6 km/h (1 Bft) O-SO 112 0 min 0,1 UV-I -2,2 C 1,2 C 1,6 km/h (1 Bft)
31.03.2013 13:55 0,5 C 7,2 C 1,3 C 1,3 C 1,3 C 0,8 C 81 % 80 % 21 % 1011,8 hPa 0,0 l/m 1,8 km/h (1 Bft) N-NW 337 0 min 0,1 UV-I -2,4 C 1,3 C 6,0 km/h (2 Bft)
31.03.2013 14:00 0,7 C 7,1 C 1,4 C 1,6 C 1,6 C 0,9 C 81 % 80 % 24 % 1011,8 hPa 0,0 l/m 2,4 km/h (1 Bft) W-NW 292 0 min 0,2 UV-I -2,2 C 1,6 C 2,6 km/h (1 Bft)
31.03.2013 14:05 0,7 C 7,1 C 1,5 C 1,8 C 1,8 C 1,1 C 80 % 80 % 29 % 1011,8 hPa 0,0 l/m 1,9 km/h (1 Bft) NW 315 0 min 0,3 UV-I -2,3 C 1,8 C 1,9 km/h (1 Bft)
31.03.2013 14:10 0,9 C 7,0 C 1,6 C 2,3 C 2,3 C 1,4 C 80 % 79 % 37 % 1011,8 hPa 0,0 l/m 1,4 km/h (1 Bft) N-NW 337 0 min 0,3 UV-I -2,2 C 2,3 C 2,4 km/h (1 Bft)
31.03.2013 14:15 0,9 C 6,9 C 1,7 C 2,6 C 2,6 C 1,7 C 79 % 79 % 45 % 1011,6 hPa 0,0 l/m 1,1 km/h (1 Bft) O-NO 67 0 min 0,4 UV-I -2,3 C 2,6 C 0,0 km/h (0 Bft)
31.03.2013 14:20 1,1 C 6,9 C 1,9 C 3,2 C 3,2 C 2,1 C 79 % 78 % 55 % 1011,6 hPa 0,0 l/m 1,1 km/h (1 Bft) O 90 0 min 0,4 UV-I -2,1 C 3,2 C 2,7 km/h (1 Bft)
31.03.2013 14:25 1,1 C 6,9 C 2,0 C 3,4 C 3,4 C 2,3 C 78 % 78 % 61 % 1011,6 hPa 0,0 l/m 1,0 km/h (0 Bft) SO 135 0 min 0,4 UV-I -2,3 C 3,4 C 1,6 km/h (1 Bft)
31.03.2013 14:30 1,2 C 6,9 C 2,2 C 3,7 C 3,7 C 2,5 C 78 % 78 % 66 % 1011,6 hPa 0,0 l/m 0,8 km/h (0 Bft) O-NO 67 0 min 0,5 UV-I -2,2 C 3,7 C 0,0 km/h (0 Bft)
31.03.2013 14:35 1,5 C 6,9 C 2,3 C 4,2 C 4,2 C 2,7 C 77 % 77 % 71 % 1011,9 hPa 0,0 l/m 0,8 km/h (0 Bft) O-NO 67 0 min 0,5 UV-I -2,1 C 4,2 C 2,1 km/h (1 Bft)
31.03.2013 14:40 1,6 C 6,9 C 2,7 C 4,4 C 4,4 C 2,8 C 77 % 77 % 74 % 1011,9 hPa 0,0 l/m 0,8 km/h (0 Bft) O-SO 112 0 min 0,5 UV-I -2,0 C 4,4 C 0,0 km/h (0 Bft)
31.03.2013 14:45 1,8 C 6,9 C 2,7 C 4,8 C 4,8 C 3,0 C 76 % 76 % 79 % 1011,9 hPa 0,0 l/m 0,8 km/h (0 Bft) O-NO 67 0 min 0,6 UV-I -2,0 C 4,8 C 0,0 km/h (0 Bft)
31.03.2013 14:50 1,9 C 6,9 C 2,5 C 4,8 C 4,8 C 2,9 C 75 % 76 % 76 % 1011,9 hPa 0,0 l/m 0,6 km/h (0 Bft) S-SO 157 0 min 0,3 UV-I -2,1 C 4,8 C 1,8 km/h (1 Bft)
31.03.2013 14:55 1,6 C 6,9 C 2,1 C 4,1 C 4,1 C 2,5 C 74 % 76 % 66 % 1011,4 hPa 0,0 l/m 0,8 km/h (0 Bft) S-SO 157 0 min 0,0 UV-I -2,5 C 4,1 C 7,7 km/h (2 Bft)
31.03.2013 15:00 1,3 C 7,0 C 1,7 C 2,3 C 2,3 C 1,0 C 77 % 77 % 26 % 1011,4 hPa 0,0 l/m 3,2 km/h (1 Bft) S 180 0 min 0,0 UV-I -2,3 C 2,3 C 3,7 km/h (1 Bft)
31.03.2013 15:05 0,9 C 7,3 C 1,4 C 1,0 C 1,0 C 0,1 C 78 % 79 % 3 % 1011,4 hPa 0,0 l/m 3,9 km/h (1 Bft) NW 315 0 min 0,0 UV-I -2,5 C 1,0 C 4,8 km/h (1 Bft)
31.03.2013 15:10 0,7 C 7,3 C 1,3 C 0,6 C 0,3 C 0,0 C 80 % 80 % 0 % 1011,4 hPa 0,0 l/m 3,7 km/h (1 Bft) N-NW 337 0 min 0,0 UV-I -2,3 C 0,3 C 3,2 km/h (1 Bft)
31.03.2013 15:15 0,6 C 7,2 C 1,2 C 0,6 C 0,6 C 0,0 C 80 % 80 % 0 % 1011,3 hPa 0,0 l/m 3,4 km/h (1 Bft) NW 315 0 min 0,1 UV-I -2,4 C 0,6 C 4,5 km/h (1 Bft)
31.03.2013 15:20 0,7 C 7,2 C 1,5 C 1,5 C 1,5 C 0,8 C 81 % 80 % 21 % 1011,3 hPa 0,0 l/m 1,9 km/h (1 Bft) SW 225 0 min 0,2 UV-I -2,2 C 1,5 C 0,0 km/h (0 Bft)
31.03.2013 15:25 0,7 C 7,2 C 1,5 C 1,7 C 1,7 C 1,0 C 81 % 81 % 26 % 1011,3 hPa 0,0 l/m 2,4 km/h (1 Bft) N 360 0 min 0,1 UV-I -2,2 C 1,7 C 3,2 km/h (1 Bft)
31.03.2013 15:30 0,7 C 7,2 C 1,3 C 1,2 C 1,2 C 0,5 C 81 % 81 % 13 % 1011,3 hPa 0,0 l/m 3,2 km/h (1 Bft) N-NW 337 0 min 0,1 UV-I -2,2 C 1,2 C 4,8 km/h (1 Bft)
31.03.2013 15:35 0,7 C 7,2 C 1,3 C 0,8 C 0,8 C 0,1 C 81 % 81 % 3 % 1011,8 hPa 0,0 l/m 3,7 km/h (1 Bft) N-NO 22 0 min 0,0 UV-I -2,2 C 0,8 C 6,9 km/h (2 Bft)
31.03.2013 15:40 0,5 C 7,2 C 1,1 C 0,3 C -0,2 C 0,0 C 81 % 81 % 0 % 1011,8 hPa 0,0 l/m 4,7 km/h (1 Bft) N-NW 337 0 min 0,0 UV-I -2,4 C -1,7 C 6,4 km/h (2 Bft)
31.03.2013 15:45 0,5 C 7,2 C 1,1 C 0,2 C -0,3 C 0,0 C 81 % 81 % 0 % 1011,8 hPa 0,0 l/m 4,8 km/h (1 Bft) N 360 0 min 0,0 UV-I -2,4 C -1,8 C 4,0 km/h (1 Bft)
31.03.2013 15:50 0,5 C 7,2 C 1,2 C 0,6 C 0,6 C 0,1 C 81 % 81 % 3 % 1011,8 hPa 0,0 l/m 3,5 km/h (1 Bft) N 360 0 min 0,1 UV-I -2,4 C 0,6 C 1,6 km/h (1 Bft)
31.03.2013 15:55 0,5 C 7,2 C 1,1 C 0,7 C 0,7 C 0,2 C 81 % 81 % 5 % 1011,8 hPa 0,0 l/m 3,4 km/h (1 Bft) NO 45 0 min 0,1 UV-I -2,4 C 0,7 C 11,3 km/h (2 Bft)
31.03.2013 16:00 0,4 C 7,2 C 1,1 C 0,6 C 0,6 C 0,2 C 82 % 82 % 5 % 1011,8 hPa 0,0 l/m 3,5 km/h (1 Bft) N-NO 22 0 min 0,0 UV-I -2,3 C 0,6 C 2,6 km/h (1 Bft)
31.03.2013 16:05 0,4 C 7,2 C 1,1 C 0,6 C 0,6 C 0,2 C 82 % 83 % 5 % 1011,8 hPa 0,0 l/m 3,5 km/h (1 Bft) N 360 0 min 0,0 UV-I -2,3 C 0,6 C 3,9 km/h (1 Bft)
31.03.2013 16:10 0,4 C 7,2 C 1,1 C 1,0 C 1,0 C 0,6 C 82 % 83 % 16 % 1011,8 hPa 0,0 l/m 3,1 km/h (1 Bft) N-NW 337 0 min 0,0 UV-I -2,3 C 1,0 C 2,6 km/h (1 Bft)
31.03.2013 16:15 0,4 C 7,2 C 1,1 C 1,4 C 1,4 C 1,0 C 82 % 84 % 26 % 1011,5 hPa 0,0 l/m 2,7 km/h (1 Bft) W-SW 247 0 min 0,0 UV-I -2,3 C 1,4 C 0,0 km/h (0 Bft)
31.03.2013 16:20 0,5 C 7,3 C 1,1 C 1,6 C 1,6 C 1,1 C 82 % 85 % 29 % 1011,5 hPa 0,0 l/m 1,9 km/h (1 Bft) NW 315 0 min 0,0 UV-I -2,2 C 1,6 C 1,9 km/h (1 Bft)
31.03.2013 16:25 0,6 C 7,3 C 1,1 C 1,6 C 1,6 C 1,0 C 82 % 85 % 26 % 1011,5 hPa 0,0 l/m 1,3 km/h (1 Bft) N-NW 337 0 min 0,0 UV-I -2,1 C 1,6 C 1,8 km/h (1 Bft)
31.03.2013 16:30 0,5 C 7,4 C 0,7 C 1,2 C 1,2 C 0,7 C 83 % 86 % 18 % 1011,5 hPa 0,0 l/m 1,0 km/h (0 Bft) N 360 0 min 0,0 UV-I -2,0 C 1,2 C 2,9 km/h (1 Bft)
31.03.2013 16:35 0,5 C 7,4 C 0,7 C 0,9 C 0,9 C 0,4 C 83 % 87 % 11 % 1011,5 hPa 0,0 l/m 1,6 km/h (1 Bft) W-NW 292 0 min 0,0 UV-I -2,0 C 0,9 C 5,8 km/h (2 Bft)
31.03.2013 16:40 0,3 C 7,4 C 0,4 C 0,4 C 0,4 C 0,1 C 84 % 87 % 3 % 1011,5 hPa 0,0 l/m 2,6 km/h (1 Bft) N-NO 22 0 min 0,0 UV-I -2,1 C 0,4 C 6,6 km/h (2 Bft)
31.03.2013 16:45 0,1 C 7,4 C 0,4 C 0,0 C -0,2 C 0,0 C 84 % 87 % 0 % 1011,5 hPa 0,0 l/m 3,4 km/h (1 Bft) NW 315 0 min 0,0 UV-I -2,3 C -0,2 C 3,5 km/h (1 Bft)
31.03.2013 16:50 0,1 C 7,4 C 0,5 C 0,0 C -0,2 C 0,0 C 84 % 87 % 0 % 1011,5 hPa 0,0 l/m 3,4 km/h (1 Bft) W 270 0 min 0,0 UV-I -2,3 C -0,2 C 4,2 km/h (1 Bft)
31.03.2013 16:55 0,1 C 7,4 C 0,5 C 0,4 C 0,4 C 0,3 C 84 % 88 % 8 % 1011,6 hPa 0,0 l/m 2,6 km/h (1 Bft) W-NW 292 0 min 0,0 UV-I -2,3 C 0,4 C 4,8 km/h (1 Bft)
31.03.2013 17:00 0,1 C 7,3 C 0,7 C 0,7 C 0,7 C 0,6 C 84 % 88 % 16 % 1011,6 hPa 0,0 l/m 1,8 km/h (1 Bft) O-NO 67 0 min 0,0 UV-I -2,3 C 0,7 C 0,0 km/h (0 Bft)
31.03.2013 17:05 0,3 C 7,3 C 0,7 C 1,0 C 1,0 C 0,7 C 84 % 88 % 18 % 1011,6 hPa 0,0 l/m 1,8 km/h (1 Bft) NW 315 0 min 0,0 UV-I -2,1 C 1,0 C 2,3 km/h (1 Bft)
31.03.2013 17:10 0,3 C 7,2 C 0,8 C 1,1 C 1,1 C 0,8 C 83 % 88 % 21 % 1011,6 hPa 0,0 l/m 2,6 km/h (1 Bft) N-NO 22 0 min 0,0 UV-I -2,2 C 1,1 C 3,5 km/h (1 Bft)
31.03.2013 17:15 0,3 C 7,2 C 0,8 C 1,0 C 1,0 C 0,7 C 83 % 88 % 18 % 1011,8 hPa 0,0 l/m 2,9 km/h (1 Bft) W 270 0 min 0,0 UV-I -2,2 C 1,0 C 2,9 km/h (1 Bft)
31.03.2013 17:20 0,5 C 7,2 C 0,9 C 1,6 C 1,6 C 1,1 C 82 % 88 % 29 % 1011,8 hPa 0,0 l/m 2,4 km/h (1 Bft) NW 315 0 min 0,0 UV-I -2,2 C 1,6 C 3,5 km/h (1 Bft)
31.03.2013 17:25 0,5 C 7,2 C 1,1 C 1,8 C 1,8 C 1,3 C 82 % 88 % 34 % 1011,8 hPa 0,0 l/m 1,8 km/h (1 Bft) N 360 0 min 0,0 UV-I -2,2 C 1,8 C 2,1 km/h (1 Bft)
31.03.2013 17:30 0,7 C 7,2 C 1,3 C 2,1 C 2,1 C 1,4 C 82 % 88 % 37 % 1011,8 hPa 0,0 l/m 2,1 km/h (1 Bft) N-NO 22 0 min 0,0 UV-I -2,0 C 2,1 C 2,7 km/h (1 Bft)
31.03.2013 17:35 0,8 C 7,2 C 1,3 C 2,3 C 2,3 C 1,5 C 82 % 88 % 39 % 1011,7 hPa 0,0 l/m 2,1 km/h (1 Bft) W-NW 292 0 min 0,0 UV-I -1,9 C 2,3 C 0,0 km/h (0 Bft)
31.03.2013 17:40 0,8 C 7,1 C 1,4 C 2,5 C 2,5 C 1,7 C 82 % 88 % 45 % 1011,7 hPa 0,0 l/m 1,3 km/h (1 Bft) S 180 0 min 0,0 UV-I -1,9 C 2,5 C 0,0 km/h (0 Bft)
31.03.2013 17:45 0,9 C 7,1 C 1,5 C 2,6 C 2,6 C 1,7 C 81 % 88 % 45 % 1011,7 hPa 0,0 l/m 1,8 km/h (1 Bft) NO 45 0 min 0,0 UV-I -2,0 C 2,6 C 3,9 km/h (1 Bft)
31.03.2013 17:50 0,9 C 7,1 C 1,5 C 1,6 C 1,6 C 0,7 C 80 % 88 % 18 % 1011,7 hPa 0,0 l/m 3,9 km/h (1 Bft) NO 45 0 min 0,0 UV-I -2,2 C 1,6 C 7,1 km/h (2 Bft)
31.03.2013 17:55 0,8 C 7,1 C 1,4 C 0,9 C 0,9 C 0,1 C 80 % 87 % 3 % 1011,7 hPa 0,0 l/m 5,1 km/h (1 Bft) N-NW 337 0 min 0,0 UV-I -2,2 C -0,6 C 9,8 km/h (2 Bft)
31.03.2013 18:00 0,8 C 7,1 C 1,3 C 1,0 C 1,0 C 0,2 C 79 % 87 % 5 % 1011,7 hPa 0,0 l/m 4,8 km/h (1 Bft) N 360 0 min 0,0 UV-I -2,4 C -0,4 C 6,0 km/h (2 Bft)
31.03.2013 18:05 0,8 C 7,1 C 1,3 C 0,9 C 0,9 C 0,1 C 78 % 86 % 3 % 1011,7 hPa 0,0 l/m 4,7 km/h (1 Bft) O-NO 67 0 min 0,0 UV-I -2,6 C -0,4 C 12,2 km/h (2 Bft)
31.03.2013 18:10 0,9 C 7,1 C 1,5 C 1,8 C 1,8 C 0,9 C 79 % 88 % 24 % 1011,7 hPa 0,0 l/m 3,2 km/h (1 Bft) O-NO 67 0 min 0,0 UV-I -2,3 C 1,8 C 2,4 km/h (1 Bft)
31.03.2013 18:15 1,1 C 7,1 C 1,5 C 2,3 C 2,3 C 1,2 C 80 % 88 % 32 % 1011,6 hPa 0,0 l/m 2,1 km/h (1 Bft) W 270 0 min 0,0 UV-I -2,0 C 2,3 C 0,0 km/h (0 Bft)
31.03.2013 18:20 1,0 C 7,1 C 1,3 C 2,2 C 2,2 C 1,2 C 79 % 88 % 32 % 1011,6 hPa 0,0 l/m 2,1 km/h (1 Bft) N 360 0 min 0,0 UV-I -2,2 C 2,2 C 1,8 km/h (1 Bft)
31.03.2013 18:25 1,1 C 7,1 C 1,2 C 1,9 C 1,9 C 0,8 C 79 % 88 % 21 % 1011,6 hPa 0,0 l/m 2,7 km/h (1 Bft) N 360 0 min 0,0 UV-I -2,1 C 1,9 C 2,6 km/h (1 Bft)
31.03.2013 18:30 0,8 C 7,1 C 0,9 C 1,1 C 1,1 C 0,3 C 80 % 88 % 8 % 1011,6 hPa 0,0 l/m 3,1 km/h (1 Bft) NW 315 0 min 0,0 UV-I -2,2 C 1,1 C 6,3 km/h (2 Bft)
31.03.2013 18:35 0,6 C 7,2 C 0,7 C 0,3 C -0,2 C 0,0 C 80 % 87 % 0 % 1012,1 hPa 0,0 l/m 4,5 km/h (1 Bft) N-NO 22 0 min 0,0 UV-I -2,4 C -0,2 C 12,7 km/h (3 Bft)
31.03.2013 18:41 0,3 C 7,3 C 0,4 C -0,1 C -0,9 C 0,0 C 81 % 88 % 0 % 1012,1 hPa 0,0 l/m 4,7 km/h (1 Bft) N 0 0 min 0,0 UV-I -2,6 C -2,5 C 2,4 km/h (1 Bft)
31.03.2013 19:00 -0,1 C 7,3 C 0,0 C -0,6 C -1,6 C 0,0 C 83 % 89 % 0 % 1012,1 hPa 0,0 l/m 3,9 km/h (1 Bft) NO 45 0 min 0,0 UV-I -2,6 C -1,6 C 3,1 km/h (1 Bft)
31.03.2013 19:05 -0,3 C 7,3 C 0,1 C -0,7 C -1,6 C 0,0 C 83 % 89 % 0 % 1012,1 hPa 0,0 l/m 3,9 km/h (1 Bft) N-NW 337 0 min 0,0 UV-I -2,8 C -1,6 C 4,7 km/h (1 Bft)
31.03.2013 19:10 -0,3 C 7,3 C -0,1 C -0,4 C -0,5 C 0,0 C 83 % 90 % 0 % 1012,1 hPa 0,0 l/m 1,8 km/h (1 Bft) N 360 0 min 0,0 UV-I -2,8 C -0,5 C 3,4 km/h (1 Bft)
31.03.2013 19:15 -0,3 C 7,3 C -0,1 C -0,4 C -0,6 C 0,0 C 83 % 90 % 0 % 1011,8 hPa 0,0 l/m 1,3 km/h (1 Bft) N-NW 337 0 min 0,0 UV-I -2,8 C -0,6 C 2,4 km/h (1 Bft)
31.03.2013 19:20 -0,4 C 7,3 C -0,1 C -0,5 C -0,6 C 0,0 C 83 % 90 % 0 % 1011,8 hPa 0,0 l/m 1,8 km/h (1 Bft) W-SW 247 0 min 0,0 UV-I -2,9 C -0,6 C 3,7 km/h (1 Bft)
31.03.2013 19:25 -0,4 C 7,3 C -0,3 C -0,5 C -0,6 C 0,0 C 83 % 90 % 0 % 1011,8 hPa 0,0 l/m 1,8 km/h (1 Bft) NO 45 0 min 0,0 UV-I -2,9 C -0,6 C 3,5 km/h (1 Bft)
31.03.2013 19:30 -0,5 C 7,3 C -0,3 C -0,5 C -0,6 C 0,0 C 83 % 90 % 0 % 1011,8 hPa 0,0 l/m 1,6 km/h (1 Bft) NW 315 0 min 0,0 UV-I -3,0 C -0,6 C 1,9 km/h (1 Bft)
31.03.2013 19:35 -0,5 C 7,3 C -0,3 C -0,6 C -0,7 C 0,0 C 83 % 90 % 0 % 1012,3 hPa 0,0 l/m 1,0 km/h (0 Bft) NO 45 0 min 0,0 UV-I -3,0 C -0,7 C 1,9 km/h (1 Bft)
31.03.2013 19:40 -0,5 C 7,3 C -0,3 C -0,6 C -0,8 C 0,0 C 83 % 90 % 0 % 1012,3 hPa 0,0 l/m 0,6 km/h (0 Bft) NW 315 0 min 0,0 UV-I -3,0 C -0,8 C 3,4 km/h (1 Bft)
31.03.2013 19:45 -0,5 C 7,3 C -0,4 C -0,6 C -0,8 C 0,0 C 84 % 90 % 0 % 1012,3 hPa 0,0 l/m 1,1 km/h (1 Bft) N-NW 337 0 min 0,0 UV-I -2,9 C -0,8 C 0,0 km/h (0 Bft)
31.03.2013 19:50 -0,5 C 7,3 C -0,4 C -0,6 C -0,9 C 0,0 C 84 % 90 % 0 % 1012,3 hPa 0,0 l/m 1,6 km/h (1 Bft) N-NW 337 0 min 0,0 UV-I -2,9 C -0,9 C 4,0 km/h (1 Bft)
31.03.2013 19:55 -0,5 C 7,3 C -0,4 C -0,6 C -0,9 C 0,0 C 84 % 90 % 0 % 1011,9 hPa 0,0 l/m 1,8 km/h (1 Bft) N 360 0 min 0,0 UV-I -2,9 C -0,9 C 0,0 km/h (0 Bft)
31.03.2013 20:00 -0,5 C 7,4 C -0,3 C -0,7 C -1,2 C 0,0 C 85 % 90 % 0 % 1011,9 hPa 0,0 l/m 2,7 km/h (1 Bft) N-NO 22 0 min 0,0 UV-I -2,7 C -1,2 C 2,6 km/h (1 Bft)
31.03.2013 20:05 -0,6 C 7,4 C -0,5 C -0,7 C -1,0 C 0,0 C 85 % 90 % 0 % 1011,9 hPa 0,0 l/m 1,8 km/h (1 Bft) N-NO 22 0 min 0,0 UV-I -2,8 C -1,0 C 0,0 km/h (0 Bft)
31.03.2013 20:10 -0,5 C 7,4 C -0,5 C -0,7 C -1,1 C 0,0 C 85 % 90 % 0 % 1011,9 hPa 0,0 l/m 1,1 km/h (1 Bft) N-NW 337 0 min 0,0 UV-I -2,7 C -1,1 C 0,0 km/h (0 Bft)
31.03.2013 20:15 -0,7 C 7,4 C -0,6 C -0,8 C -1,1 C 0,0 C 85 % 90 % 0 % 1012,3 hPa 0,0 l/m 0,5 km/h (0 Bft) N 360 0 min 0,0 UV-I -2,9 C -1,1 C 0,0 km/h (0 Bft)
31.03.2013 20:20 -0,7 C 7,4 C -0,6 C -0,9 C -1,2 C 0,0 C 85 % 90 % 0 % 1012,3 hPa 0,0 l/m 0,2 km/h (0 Bft) NW 315 0 min 0,0 UV-I -2,9 C -1,2 C 0,0 km/h (0 Bft)
31.03.2013 20:25 -0,7 C 7,4 C -0,5 C -0,9 C -1,2 C 0,0 C 85 % 90 % 0 % 1012,3 hPa 0,0 l/m 0,5 km/h (0 Bft) NW 315 0 min 0,0 UV-I -2,9 C -1,2 C 1,9 km/h (1 Bft)
31.03.2013 20:30 -0,7 C 7,4 C -0,5 C -0,9 C -1,2 C 0,0 C 86 % 90 % 0 % 1012,3 hPa 0,0 l/m 0,3 km/h (0 Bft) NW 315 0 min 0,0 UV-I -2,7 C -1,2 C 0,0 km/h (0 Bft)
31.03.2013 20:35 -0,7 C 7,4 C -0,5 C -0,9 C -1,3 C 0,0 C 86 % 90 % 0 % 1012,6 hPa 0,0 l/m 0,5 km/h (0 Bft) N-NO 22 0 min 0,0 UV-I -2,7 C -1,3 C 4,2 km/h (1 Bft)
31.03.2013 20:40 -0,8 C 7,4 C -0,5 C -1,0 C -1,3 C 0,0 C 86 % 90 % 0 % 1012,6 hPa 0,0 l/m 0,6 km/h (0 Bft) W-SW 247 0 min 0,0 UV-I -2,8 C -1,3 C 0,0 km/h (0 Bft)
31.03.2013 20:45 -0,8 C 7,4 C -0,5 C -1,0 C -1,3 C 0,0 C 86 % 91 % 0 % 1012,6 hPa 0,0 l/m 1,0 km/h (0 Bft) NW 315 0 min 0,0 UV-I -2,8 C -1,3 C 3,2 km/h (1 Bft)
31.03.2013 20:50 -0,8 C 7,4 C -0,5 C -0,9 C -1,2 C 0,0 C 86 % 91 % 0 % 1012,6 hPa 0,0 l/m 0,6 km/h (0 Bft) N 360 0 min 0,0 UV-I -2,8 C -1,2 C 0,0 km/h (0 Bft)
31.03.2013 20:55 -0,8 C 7,4 C -0,7 C -0,9 C -1,2 C 0,0 C 86 % 91 % 0 % 1012,6 hPa 0,0 l/m 0,8 km/h (0 Bft) N-NW 337 0 min 0,0 UV-I -2,8 C -1,2 C 0,0 km/h (0 Bft)
31.03.2013 21:00 -0,7 C 7,5 C -0,7 C -0,9 C -1,3 C 0,0 C 86 % 91 % 0 % 1012,6 hPa 0,0 l/m 0,6 km/h (0 Bft) NO 45 0 min 0,0 UV-I -2,7 C -1,3 C 0,0 km/h (0 Bft)
31.03.2013 21:05 -0,9 C 7,5 C -0,7 C -1,0 C -1,3 C 0,0 C 86 % 91 % 0 % 1012,6 hPa 0,0 l/m 0,3 km/h (0 Bft) NW 315 0 min 0,0 UV-I -2,9 C -1,3 C 0,0 km/h (0 Bft)
31.03.2013 21:10 -0,9 C 7,5 C -0,7 C -1,0 C -1,3 C 0,0 C 86 % 91 % 0 % 1012,6 hPa 0,0 l/m 0,2 km/h (0 Bft) NW 315 0 min 0,0 UV-I -2,9 C -1,3 C 0,0 km/h (0 Bft)
31.03.2013 21:15 -0,9 C 7,5 C -0,7 C -1,0 C -1,3 C 0,0 C 86 % 91 % 0 % 1012,8 hPa 0,0 l/m 0,0 km/h (0 Bft) W 270 0 min 0,0 UV-I -2,9 C -1,3 C 0,0 km/h (0 Bft)
31.03.2013 21:20 -0,9 C 7,5 C -0,8 C -1,1 C -1,4 C 0,0 C 86 % 91 % 0 % 1012,8 hPa 0,0 l/m 0,5 km/h (0 Bft) W-SW 247 0 min 0,0 UV-I -2,9 C -1,4 C 3,4 km/h (1 Bft)
31.03.2013 21:25 -0,9 C 7,5 C -0,7 C -1,1 C -1,4 C 0,0 C 87 % 91 % 0 % 1012,8 hPa 0,0 l/m 0,6 km/h (0 Bft) W 270 0 min 0,0 UV-I -2,8 C -1,4 C 0,0 km/h (0 Bft)
31.03.2013 21:30 -0,9 C 7,5 C -0,7 C -1,1 C -1,5 C 0,0 C 87 % 91 % 0 % 1012,8 hPa 0,0 l/m 1,3 km/h (1 Bft) W 270 0 min 0,0 UV-I -2,8 C -1,5 C 2,7 km/h (1 Bft)
31.03.2013 21:35 -0,9 C 7,5 C -0,7 C -1,1 C -1,4 C 0,0 C 87 % 91 % 0 % 1012,4 hPa 0,0 l/m 0,6 km/h (0 Bft) SW 225 0 min 0,0 UV-I -2,8 C -1,4 C 0,0 km/h (0 Bft)
31.03.2013 21:40 -0,9 C 7,5 C -0,8 C -1,1 C -1,4 C 0,0 C 87 % 91 % 0 % 1012,4 hPa 0,0 l/m 0,6 km/h (0 Bft) SW 225 0 min 0,0 UV-I -2,8 C -1,4 C 2,7 km/h (1 Bft)
31.03.2013 21:45 -0,9 C 7,5 C -0,8 C -1,0 C -1,3 C 0,0 C 87 % 91 % 0 % 1012,4 hPa 0,0 l/m 1,0 km/h (0 Bft) W-SW 247 0 min 0,0 UV-I -2,8 C -1,3 C 2,7 km/h (1 Bft)
31.03.2013 21:50 -0,9 C 7,5 C -0,8 C -1,0 C -1,3 C 0,0 C 87 % 91 % 0 % 1012,4 hPa 0,0 l/m 1,0 km/h (0 Bft) W-SW 247 0 min 0,0 UV-I -2,8 C -1,3 C 0,0 km/h (0 Bft)
31.03.2013 21:55 -0,9 C 7,5 C -0,8 C -1,0 C -1,3 C 0,0 C 87 % 91 % 0 % 1012,9 hPa 0,0 l/m 1,1 km/h (1 Bft) W-SW 247 0 min 0,0 UV-I -2,8 C -1,3 C 2,6 km/h (1 Bft)
31.03.2013 22:00 -1,0 C 7,5 C -0,8 C -1,1 C -1,3 C 0,0 C 87 % 91 % 0 % 1012,9 hPa 0,0 l/m 1,0 km/h (0 Bft) W-SW 247 0 min 0,0 UV-I -2,9 C -1,3 C 2,1 km/h (1 Bft)
31.03.2013 22:05 -1,0 C 7,5 C -0,8 C -1,1 C -1,3 C 0,0 C 87 % 91 % 0 % 1012,9 hPa 0,0 l/m 1,3 km/h (1 Bft) W 270 0 min 0,0 UV-I -2,9 C -1,3 C 2,7 km/h (1 Bft)
31.03.2013 22:10 -1,0 C 7,5 C -0,8 C -1,1 C -1,3 C 0,0 C 87 % 91 % 0 % 1012,9 hPa 0,0 l/m 2,3 km/h (1 Bft) W 270 0 min 0,0 UV-I -2,9 C -1,3 C 4,8 km/h (1 Bft)
31.03.2013 22:15 -0,9 C 7,5 C -0,9 C -1,1 C -1,4 C 0,0 C 87 % 91 % 0 % 1012,8 hPa 0,0 l/m 2,4 km/h (1 Bft) W-SW 247 0 min 0,0 UV-I -2,8 C -1,4 C 3,2 km/h (1 Bft)
31.03.2013 22:20 -0,9 C 7,5 C -0,9 C -1,2 C -1,8 C 0,0 C 87 % 91 % 0 % 1012,8 hPa 0,0 l/m 2,7 km/h (1 Bft) SW 225 0 min 0,0 UV-I -2,8 C -1,8 C 2,9 km/h (1 Bft)
31.03.2013 22:25 -0,9 C 7,5 C -0,9 C -1,1 C -1,4 C 0,0 C 87 % 91 % 0 % 1012,8 hPa 0,0 l/m 1,9 km/h (1 Bft) W-SW 247 0 min 0,0 UV-I -2,8 C -1,4 C 1,8 km/h (1 Bft)
31.03.2013 22:30 -0,9 C 7,5 C -0,9 C -1,1 C -1,5 C 0,0 C 87 % 91 % 0 % 1012,8 hPa 0,0 l/m 2,1 km/h (1 Bft) W 270 0 min 0,0 UV-I -2,8 C -1,5 C 5,3 km/h (1 Bft)
31.03.2013 22:35 -0,9 C 7,5 C -0,9 C -1,1 C -1,5 C 0,0 C 87 % 91 % 0 % 1012,4 hPa 0,0 l/m 1,9 km/h (1 Bft) SW 225 0 min 0,0 UV-I -2,8 C -1,5 C 1,6 km/h (1 Bft)
31.03.2013 22:40 -0,9 C 7,5 C -0,9 C -1,1 C -1,5 C 0,0 C 87 % 91 % 0 % 1012,4 hPa 0,0 l/m 1,4 km/h (1 Bft) W-SW 247 0 min 0,0 UV-I -2,8 C -1,5 C 2,7 km/h (1 Bft)
31.03.2013 22:45 -0,9 C 7,5 C -0,9 C -1,1 C -1,4 C 0,0 C 87 % 92 % 0 % 1012,4 hPa 0,0 l/m 1,0 km/h (0 Bft) W-SW 247 0 min 0,0 UV-I -2,8 C -1,4 C 0,0 km/h (0 Bft)
31.03.2013 22:50 -0,9 C 7,5 C -0,9 C -1,1 C -1,4 C 0,0 C 87 % 92 % 0 % 1012,4 hPa 0,0 l/m 1,4 km/h (1 Bft) W 270 0 min 0,0 UV-I -2,8 C -1,4 C 2,4 km/h (1 Bft)
31.03.2013 22:55 -1,1 C 7,5 C -0,9 C -1,2 C -1,4 C 0,0 C 87 % 92 % 0 % 1012,9 hPa 0,0 l/m 1,8 km/h (1 Bft) W-SW 247 0 min 0,0 UV-I -3,0 C -1,4 C 3,2 km/h (1 Bft)
31.03.2013 23:00 -1,1 C 7,5 C -0,7 C -1,2 C -1,3 C 0,0 C 88 % 92 % 0 % 1012,9 hPa 0,0 l/m 1,8 km/h (1 Bft) W 270 0 min 0,0 UV-I -2,8 C -1,3 C 1,6 km/h (1 Bft)
31.03.2013 23:05 -1,1 C 7,5 C -0,7 C -1,2 C -1,3 C 0,0 C 88 % 92 % 0 % 1012,9 hPa 0,0 l/m 1,9 km/h (1 Bft) NW 315 0 min 0,0 UV-I -2,8 C -1,3 C 5,1 km/h (1 Bft)
31.03.2013 23:10 -1,1 C 7,5 C -0,9 C -1,2 C -1,3 C 0,0 C 88 % 92 % 0 % 1012,9 hPa 0,0 l/m 1,6 km/h (1 Bft) W-SW 247 0 min 0,0 UV-I -2,8 C -1,3 C 0,0 km/h (0 Bft)
31.03.2013 23:15 -1,1 C 7,5 C -0,9 C -1,2 C -1,3 C 0,0 C 88 % 92 % 0 % 1012,4 hPa 0,0 l/m 2,1 km/h (1 Bft) W-NW 292 0 min 0,0 UV-I -2,8 C -1,3 C 4,3 km/h (1 Bft)
31.03.2013 23:20 -1,1 C 7,5 C -0,7 C -1,2 C -1,3 C 0,0 C 88 % 92 % 0 % 1012,4 hPa 0,0 l/m 1,9 km/h (1 Bft) N 360 0 min 0,0 UV-I -2,8 C -1,3 C 1,6 km/h (1 Bft)
31.03.2013 23:25 -1,1 C 7,5 C -0,8 C -1,2 C -1,3 C 0,0 C 88 % 92 % 0 % 1012,4 hPa 0,0 l/m 1,6 km/h (1 Bft) W-NW 292 0 min 0,0 UV-I -2,8 C -1,3 C 0,0 km/h (0 Bft)
31.03.2013 23:30 -1,1 C 7,5 C -0,8 C -1,2 C -1,3 C 0,0 C 88 % 92 % 0 % 1012,4 hPa 0,0 l/m 0,8 km/h (0 Bft) S 180 0 min 0,0 UV-I -2,8 C -1,3 C 0,0 km/h (0 Bft)
31.03.2013 23:35 -1,1 C 7,5 C -0,8 C -1,2 C -1,3 C 0,0 C 88 % 92 % 0 % 1012,4 hPa 0,0 l/m 1,0 km/h (0 Bft) W-NW 292 0 min 0,0 UV-I -2,8 C -1,3 C 0,0 km/h (0 Bft)
31.03.2013 23:40 -1,1 C 7,5 C -0,8 C -1,2 C -1,3 C 0,0 C 88 % 92 % 0 % 1012,4 hPa 0,0 l/m 1,0 km/h (0 Bft) N-NW 337 0 min 0,0 UV-I -2,8 C -1,3 C 1,8 km/h (1 Bft)
31.03.2013 23:45 -1,1 C 7,5 C -0,8 C -1,2 C -1,3 C 0,0 C 88 % 92 % 0 % 1012,4 hPa 0,0 l/m 0,6 km/h (0 Bft) SW 225 0 min 0,0 UV-I -2,8 C -1,3 C 2,7 km/h (1 Bft)
31.03.2013 23:50 -0,9 C 7,5 C -0,8 C -1,0 C -1,3 C 0,0 C 88 % 92 % 0 % 1012,4 hPa 0,0 l/m 1,1 km/h (1 Bft) S 180 0 min 0,0 UV-I -2,6 C -1,3 C 0,0 km/h (0 Bft)
31.03.2013 23:55 -0,9 C 7,5 C -0,8 C -1,0 C -1,3 C 0,0 C 88 % 92 % 0 % 1012,4 hPa 0,0 l/m 1,3 km/h (1 Bft) NW 315 0 min 0,0 UV-I -2,6 C -1,3 C 0,0 km/h (0 Bft)
_ Min-Zeit 05:00 11:20 04:50 05:00 05:00 00:00 11:55 11:50 00:00 07:00 - 00:00 - - - 00:00 05:00 05:00 00:00
Minimum _ -5,2 C 6,9 C -4,3 C -5,4 C -5,7 C 0,0 C 74 % 69 % 0 % 1010,2 hPa - 0,0 km/h (0 Bft) - - - 0,0 UV-I -6,9 C -5,7 C 0,0 km/h (0 Bft)
_ Max-Zeit 11:50 21:00 11:45 11:05 11:05 10:30 09:00 22:45 09:50 21:55 00:00 17:55 - - 07:00 11:45 11:00 11:05 18:35
Maximum _ 1,9 C 7,5 C 4,9 C 6,8 C 6,8 C 6,2 C 91 % 92 % 100 % 1012,9 hPa 0,0 l/m 5,1 km/h
N-NW (1 Bft)
- - 19 min 1,1 UV-I -1,9 C 6,8 C 12,7 km/h
N-NO (3 Bft)
Durchschnitt _ -1,6 C 7,3 C -0,6 C -0,7 C -0,9 C 1,0 C 85 % 86 % 22 % 1011,5 hPa #0,0 l/m 1,4 km/h (1 Bft) N-NW - #2:49 h 0,5 UV-I -3,8 C -0,9 C 1,9 km/h (1 Bft)
2013 www.wetterstation-wechselburg.de